C/2017 D5 ( PanSTARRS )

Japanese version
Home page
Updated on April 8, 2017

---------------------------------------------------------------------

* Profile

Discovery Date February 23, 2017
Magnitude 20.4 mag
Discoverer Pan-STARRS 1 telescope (Haleakala)

* Orbital Elements

Epoch 2017 Jan. 7.0 TT = JDT 2457760.5
T 2017 Jan. 8.85932 TT                                  MPCW
q   2.1671853            (2000.0)            P               Q
z  +0.0088380      Peri.  287.81866     -0.63889379     +0.15551095
 +/-0.0000539      Node    92.71993     +0.53885951     +0.78942338
e   0.9808465      Incl.  131.03901     -0.54904022     +0.59382410
From 71 observations 2017 Feb. 10-Mar. 31, mean residual 0".4.

* Magnitudes Graph

        m1 = 16.0 + 5 log d + 10.0 log r

---------------------------------------------------------------------

The orbital elements are published on M.P.E.C. 2017-G04.
The magnitudes graphs are made with Comet for Windows.

---------------------------------------------------------------------

Copyright(C) Seiichi Yoshida (comet@aerith.net). All rights reserved.